George Town, Cayman Islands

9:53 PM EST on February 21, 2017 (GMT -0500)
Roberts International

Weather History for MWCR - February, 2014

Change the Weather History Date:

Saturday, February 1, 2014

  Actual Average Record
Temperature  
Mean Temperature 80 °F -  
Max Temperature 86 °F 81 °F 86 °F (2001)
Min Temperature 75 °F 73 °F 69 °F (1998)
Cooling Degree Days 16    
Growing Degree Days 30 (Base 50)    
Moisture  
Dew Point 74 °F    
Average Humidity 79    
Maximum Humidity 89    
Minimum Humidity 70    
Precipitation  
Precipitation 0.00 in - - ()
Sea Level Pressure  
Sea Level Pressure 30.00 in    
Wind  
Wind Speed 8 mph ()    
Max Wind Speed 14 mph    
Max Gust Speed -    
Visibility 6.2 miles    
Events      
Averages and records for this station are not official NWS values.
T = Trace of Precipitation, MM = Missing Value Source: Averaged Metar Reports

Daily Weather History Graph

Daily Weather History Graph

Search for Another Location

Airport or City:

Trip Planner

Search our weather history database for the weather conditions in past years. The results will help you decide how hot, cold, wet, or windy it might be!

Date:

Astronomy

Feb. 01, 2014 Rise Set
Actual Time 6:59 AM EST 6:18 PM EST
Civil Twilight 6:37 AM EST 6:41 PM EST
Nautical Twilight 6:10 AM EST 7:07 PM EST
Astronomical Twilight 5:44 AM EST 7:33 PM EST
Moon 8:11 AM EST (2/1) 8:24 PM EST (2/1)
Length of Visible Light 12h 04m
Length of Day
11h 18m
Waxing Crescent, 5% of the Moon is Illuminated
Feb 1
Waxing Crescent
Feb 6
First Quarter
Feb 14
Full
Feb 22
Last Quarter
Mar 1
New

Hourly Weather History & Observations

Time (EST) Temp. Heat Index Dew Point Humidity Pressure Visibility Wind Dir Wind Speed Gust Speed Precip Events Conditions
6:00 AM 77.0 °F - 73.4 °F 89% 30.01 in 6.2 mi East 8.1 mph - N/A   Clear
7:00 AM 77 °F - 73 °F 85% 30.02 in 6 mi East 9.2 mph - -   Scattered Clouds
7:00 AM 77.0 °F - 73.4 °F 89% 30.01 in 6.2 mi East 9.2 mph - N/A   Partly Cloudy
8:00 AM 78.8 °F - 73.4 °F 83% 30.01 in 6.2 mi East 8.1 mph - N/A   Partly Cloudy
9:00 AM 78.8 °F - 73.4 °F 83% 30.04 in 6.2 mi East 5.8 mph - N/A   Partly Cloudy
10:00 AM 82.4 °F 88.2 °F 73.4 °F 74% 30.04 in 6.2 mi East 12.7 mph - N/A   Scattered Clouds
11:00 AM 82.4 °F 88.2 °F 73.4 °F 74% 30.04 in 6.2 mi ENE 13.8 mph - N/A   Scattered Clouds
12:00 PM 84.2 °F 90.9 °F 73.4 °F 70% 30.04 in 6.2 mi ENE 12.7 mph - N/A   Partly Cloudy
1:00 PM 83 °F - 75 °F 70% 30.01 in 6 mi East 11.5 mph - -   Scattered Clouds
1:00 PM 84.2 °F 92.3 °F 75.2 °F 74% 30.01 in 6.2 mi East 11.5 mph - N/A   Partly Cloudy
2:00 PM 84.2 °F 90.9 °F 73.4 °F 70% 29.98 in 6.2 mi East 11.5 mph - N/A   Partly Cloudy
3:00 PM 84.2 °F 90.9 °F 73.4 °F 70% 29.95 in 6.2 mi East 11.5 mph - N/A   Partly Cloudy
4:00 PM 82.4 °F 89.5 °F 75.2 °F 79% 29.95 in 6.2 mi ENE 11.5 mph - N/A   Partly Cloudy
5:00 PM 82.4 °F 88.2 °F 73.4 °F 74% 29.95 in 6.2 mi ENE 12.7 mph - N/A   Partly Cloudy
6:00 PM 80.6 °F 85.4 °F 73.4 °F 79% 29.98 in 6.2 mi East 10.4 mph - N/A   Partly Cloudy
7:00 PM 80 °F - 74 °F 76% 29.99 in 6 mi East 9.2 mph - -   Scattered Clouds
7:00 PM 78.8 °F - 73.4 °F 83% 29.98 in 6.2 mi East 9.2 mph - N/A   Partly Cloudy
8:00 PM 78.8 °F - 73.4 °F 83% 30.01 in 6.2 mi East 5.8 mph - N/A   Partly Cloudy
9:00 PM 78.8 °F - 73.4 °F 83% 30.01 in 6.2 mi East 6.9 mph - N/A   Partly Cloudy
10:00 PM 78.8 °F - 75.2 °F 89% 30.01 in 6.2 mi East 5.8 mph - N/A   Partly Cloudy